Orbital Elements at Epoch 2459200.5 (2020-Dec-17.0) TDB
Reference: JPL 28 (heliocentric ecliptic J2000)
Element | Value | Uncertainty (1-sigma) | Units |
e | .07604140748991293 | 6.0087e-08 | |
a | 5.154189873004396 | 9.5332e-08 | au |
q | 4.762258020590886 | 3.4119e-07 | au |
i | 13.03962697165565 | 6.7216e-06 | deg |
node | 354.1470559015397 | 1.6766e-05 | deg |
peri | 358.222413763343 | 3.5848e-05 | deg |
M | 21.99872716550461 | 2.8795e-05 | deg |
tp | 2458939.323498850072 (2020-Mar-30.82349885) | 0.00034549 | TDB |
period | 4274.044571151772 11.70 | 0.00011858 3.247e-07 | d yr |
n | .08422935091268527 | 2.3369e-09 | deg/d |
Q | 5.546121725417906 | 1.0258e-07 | au |
|
| | Orbit Determination Parameters
Additional Information
|